User: anonymous   Login
Location: Nebula Knoll Observatory
(43.6666°N, 71.0000°W)
Time: 21:56:28
(UTC-04:00)
Language:

Cosmos 1782 - Orbit

View from above orbital plane
View from above orbital plane
View from above satellite
View from above satellite

Ground track
Ground track

The orbit data is extracted from the following two-line orbital elements,

1 16986U 86074A   16148.96737725 +.00001034 +00000-0 +68789-4 0  9991
2 16986 082.5048 135.8422 0009768 210.5204 149.5456 15.06090952591688
Epoch (UTC): 27 May 2016 23:13:01
Eccentricity: 0.0009768
inclination: 82.5048°
perigee height: 541 km
apogee height: 555 km
right ascension of ascending node: 135.8422°
argument of perigee: 210.5204°
revolutions per day: 15.06090952
mean anomaly at epoch: 149.5456°
orbit number at epoch: 59168

The dashed part of the orbit path shows where the satellite is in the earth's shadow,  

DLR